Albert Lea, MN

7:18 PM CDT on June 26, 2017 (GMT -0500)
Albert Lea Municipal

Weather History for KAEL - October, 2013

Change the Weather History Date:

Tuesday, October 29, 2013

  Actual Average Record
Temperature  
Mean Temperature 45 °F -  
Max Temperature 53 °F 49 °F 80 °F (2004)
Min Temperature 37 °F 33 °F 24 °F (2010)
Degree Days  
Heating Degree Days 20    
Moisture  
Dew Point 34 °F    
Average Humidity 66    
Maximum Humidity 76    
Minimum Humidity 54    
Precipitation  
Precipitation 0.00 in - - ()
Sea Level Pressure  
Sea Level Pressure 30.18 in    
Wind  
Wind Speed 9 mph (ESE)    
Max Wind Speed 17 mph    
Max Gust Speed 24 mph    
Visibility 10 miles    
Events      
Averages and records for this station are not official NWS values.
T = Trace of Precipitation, MM = Missing Value Source: NWS Daily Summary

Daily Weather History Graph

Daily Weather History Graph

Search for Another Location

Airport or City:

Trip Planner

Search our weather history database for the weather conditions in past years. The results will help you decide how hot, cold, wet, or windy it might be!

Date:

Astronomy

Oct. 29, 2013 Rise Set
Actual Time 7:45 AM CDT 6:07 PM CDT
Civil Twilight 7:16 AM CDT 6:37 PM CDT
Nautical Twilight 6:42 AM CDT 7:11 PM CDT
Astronomical Twilight 6:08 AM CDT 7:44 PM CDT
Moon 2:27 AM CDT (10/29) 3:30 PM CDT (10/29)
Length of Visible Light 11h 21m
Length of Day
10h 22m
Waning Crescent, 25% of the Moon is Illuminated
Oct 29
Waning Crescent
Nov 3
New
Nov 9
First Quarter
Nov 17
Full
Nov 25
Last Quarter

Hourly Weather History & Observations

Time (CDT) Temp. Windchill Dew Point Humidity Pressure Visibility Wind Dir Wind Speed Gust Speed Precip Events Conditions
12:10 AM 39.2 °F 34.2 °F 28.4 °F 65% 30.32 in 10.0 mi East 6.9 mph - N/A   Scattered Clouds
12:30 AM 37.4 °F 32.1 °F 28.4 °F 70% 30.32 in 10.0 mi East 6.9 mph - N/A   Scattered Clouds
12:50 AM 37.4 °F 31.4 °F 28.4 °F 70% 30.33 in 10.0 mi East 8.1 mph - N/A   Scattered Clouds
1:10 AM 37.4 °F 32.1 °F 28.4 °F 70% 30.33 in 10.0 mi East 6.9 mph - N/A   Overcast
1:29 AM 39.2 °F 34.2 °F 28.4 °F 65% 30.33 in 10.0 mi East 6.9 mph - N/A   Overcast
1:50 AM 37.4 °F 32.1 °F 30.2 °F 75% 30.33 in 10.0 mi East 6.9 mph - N/A   Overcast
2:10 AM 37.4 °F 31.4 °F 30.2 °F 75% 30.32 in 10.0 mi East 8.1 mph - N/A   Overcast
2:29 AM 37.4 °F 31.4 °F 30.2 °F 75% 30.33 in 10.0 mi East 8.1 mph - N/A   Overcast
2:50 AM 37.4 °F 30.3 °F 28.4 °F 70% 30.32 in 10.0 mi East 10.4 mph - N/A   Overcast
3:10 AM 39.2 °F 33.6 °F 30.2 °F 70% 30.32 in 10.0 mi ESE 8.1 mph - N/A   Overcast
3:30 AM 39.2 °F 32.5 °F 30.2 °F 70% 30.31 in 10.0 mi East 10.4 mph - N/A   Overcast
3:50 AM 37.4 °F 31.4 °F 30.2 °F 75% 30.31 in 10.0 mi East 8.1 mph - N/A   Overcast
4:10 AM 37.4 °F 31.4 °F 30.2 °F 75% 30.31 in 10.0 mi East 8.1 mph - N/A   Mostly Cloudy
4:30 AM 37.4 °F 31.4 °F 30.2 °F 75% 30.29 in 10.0 mi East 8.1 mph - N/A   Scattered Clouds
4:50 AM 37.4 °F 30.3 °F 30.2 °F 75% 30.28 in 10.0 mi ENE 10.4 mph - N/A   Mostly Cloudy
5:10 AM 37.4 °F 34.9 °F 30.2 °F 75% 30.31 in 10.0 mi East 3.5 mph - N/A   Overcast
5:29 AM 37.4 °F 31.4 °F 30.2 °F 75% 30.29 in 10.0 mi ENE 8.1 mph - N/A   Overcast
5:50 AM 37.4 °F 31.4 °F 30.2 °F 75% 30.29 in 10.0 mi East 8.1 mph - N/A   Overcast
6:10 AM 37.4 °F 30.3 °F 30.2 °F 75% 30.29 in 10.0 mi East 10.4 mph - N/A   Overcast
6:29 AM 37.4 °F 31.4 °F 30.2 °F 75% 30.28 in 10.0 mi East 8.1 mph - N/A   Overcast
6:50 AM 37.4 °F 29.3 °F 30.2 °F 75% 30.27 in 10.0 mi East 12.7 mph - N/A   Overcast
7:09 AM 37.4 °F 29.8 °F 30.2 °F 75% 30.27 in 10.0 mi East 11.5 mph - N/A   Overcast
7:30 AM 37.4 °F 30.3 °F 30.2 °F 75% 30.26 in 10.0 mi East 10.4 mph 18.4 mph N/A   Overcast
7:50 AM 37.4 °F 29.3 °F 30.2 °F 75% 30.26 in 10.0 mi East 12.7 mph - N/A   Overcast
8:09 AM 37.4 °F 30.3 °F 30.2 °F 75% 30.27 in 10.0 mi East 10.4 mph 17.3 mph N/A   Overcast
8:30 AM 39.2 °F 32.0 °F 30.2 °F 70% 30.27 in 10.0 mi ESE 11.5 mph - N/A   Mostly Cloudy
8:50 AM 39.2 °F 30.5 °F 30.2 °F 70% 30.26 in 10.0 mi ESE 16.1 mph 19.6 mph N/A   Mostly Cloudy
9:09 AM 39.2 °F 31.6 °F 32.0 °F 75% 30.25 in 10.0 mi ESE 12.7 mph - N/A   Mostly Cloudy
9:30 AM 39.2 °F 32.0 °F 32.0 °F 75% 30.24 in 10.0 mi ESE 11.5 mph 21.9 mph N/A   Mostly Cloudy
9:50 AM 39.2 °F 30.8 °F 32.0 °F 75% 30.24 in 10.0 mi ESE 15.0 mph 18.4 mph N/A   Mostly Cloudy
10:09 AM 42.8 °F 35.4 °F 32.0 °F 66% 30.23 in 10.0 mi ESE 15.0 mph 21.9 mph N/A   Mostly Cloudy
10:30 AM 42.8 °F 36.2 °F 33.8 °F 70% 30.23 in 10.0 mi SE 12.7 mph 20.7 mph N/A   Overcast
10:50 AM 42.8 °F 35.8 °F 33.8 °F 70% 30.22 in 10.0 mi SE 13.8 mph 21.9 mph N/A   Overcast
11:10 AM 44.6 °F 37.2 °F 33.8 °F 66% 30.20 in 10.0 mi ESE 17.3 mph 21.9 mph N/A   Mostly Cloudy
11:30 AM 44.6 °F 38.1 °F 33.8 °F 66% 30.20 in 10.0 mi SE 13.8 mph 24.2 mph N/A   Overcast
11:50 AM 46.4 °F 40.7 °F 35.6 °F 66% 30.20 in 10.0 mi ESE 12.7 mph 18.4 mph N/A   Mostly Cloudy
12:10 PM 46.4 °F 41.1 °F 35.6 °F 66% 30.19 in 10.0 mi ESE 11.5 mph 16.1 mph N/A   Scattered Clouds
12:30 PM 48.2 °F - 35.6 °F 62% 30.17 in 10.0 mi SE 15.0 mph - N/A   Scattered Clouds
12:50 PM 48.2 °F - 35.6 °F 62% 30.17 in 10.0 mi SE 11.5 mph 18.4 mph N/A   Scattered Clouds
1:09 PM 48.2 °F - 35.6 °F 62% 30.15 in 10.0 mi SE 9.2 mph 16.1 mph N/A   Scattered Clouds
1:30 PM 50.0 °F - 35.6 °F 58% 30.14 in 10.0 mi SSE 10.4 mph - N/A   Scattered Clouds
1:49 PM 51.8 °F - 35.6 °F 54% 30.13 in 10.0 mi SE 9.2 mph - N/A   Scattered Clouds
2:10 PM 51.8 °F - 35.6 °F 54% 30.13 in 10.0 mi SE 11.5 mph - N/A   Clear
2:30 PM 50.0 °F - 35.6 °F 58% 30.12 in 10.0 mi SE 9.2 mph - N/A   Clear
2:49 PM 50.0 °F - 35.6 °F 58% 30.12 in 10.0 mi SE 8.1 mph - N/A   Scattered Clouds
3:10 PM 51.8 °F - 35.6 °F 54% 30.10 in 10.0 mi ESE 8.1 mph - N/A   Scattered Clouds
3:30 PM 51.8 °F - 37.4 °F 58% 30.10 in 10.0 mi SE 9.2 mph - N/A   Scattered Clouds
3:49 PM 53.6 °F - 37.4 °F 54% 30.09 in 10.0 mi ESE 6.9 mph - N/A   Scattered Clouds
4:10 PM 53.6 °F - 37.4 °F 54% 30.09 in 10.0 mi ESE 3.5 mph - N/A   Mostly Cloudy
4:30 PM 53.6 °F - 37.4 °F 54% 30.09 in 10.0 mi East 6.9 mph - N/A   Overcast
4:49 PM 53.6 °F - 37.4 °F 54% 30.08 in 10.0 mi East 6.9 mph - N/A   Overcast
5:10 PM 53.6 °F - 37.4 °F 54% 30.07 in 10.0 mi East 5.8 mph - N/A   Overcast
5:30 PM 53.6 °F - 39.2 °F 58% 30.07 in 10.0 mi East 6.9 mph - N/A   Overcast
5:49 PM 53.6 °F - 39.2 °F 58% 30.07 in 10.0 mi East 5.8 mph - N/A   Overcast
6:10 PM 53.6 °F - 39.2 °F 58% 30.06 in 10.0 mi East 8.1 mph - N/A   Overcast
6:30 PM 53.6 °F - 39.2 °F 58% 30.06 in 10.0 mi East 6.9 mph - N/A   Overcast
6:49 PM 53.6 °F - 39.2 °F 58% 30.05 in 10.0 mi East 9.2 mph - N/A   Overcast
7:10 PM 51.8 °F - 39.2 °F 62% 30.06 in 7.0 mi East 8.1 mph - N/A   Overcast
7:30 PM 51.8 °F - 39.2 °F 62% 30.06 in 7.0 mi East 9.2 mph - N/A   Overcast
7:49 PM 51.8 °F - 39.2 °F 62% 30.05 in 7.0 mi ESE 9.2 mph - N/A   Overcast
8:10 PM 51.8 °F - 39.2 °F 62% 30.05 in 7.0 mi East 9.2 mph - N/A   Overcast
8:30 PM 51.8 °F - 39.2 °F 62% 30.05 in 10.0 mi ESE 8.1 mph - N/A   Overcast
8:49 PM 51.8 °F - 39.2 °F 62% 30.04 in 10.0 mi ESE 6.9 mph - N/A   Overcast
9:10 PM 51.8 °F - 39.2 °F 62% 30.05 in 10.0 mi SE 5.8 mph - N/A   Overcast
9:30 PM 51.8 °F - 39.2 °F 62% 30.04 in 10.0 mi SE 11.5 mph - N/A   Overcast
9:49 PM 51.8 °F - 39.2 °F 62% 30.04 in 10.0 mi SE 9.2 mph - N/A   Overcast
10:10 PM 51.8 °F - 39.2 °F 62% 30.04 in 10.0 mi SE 8.1 mph - N/A   Overcast
10:29 PM 51.8 °F - 39.2 °F 62% 30.05 in 10.0 mi SSE 10.4 mph 16.1 mph N/A   Overcast
10:50 PM 50.0 °F - 42.8 °F 76% 30.04 in 10.0 mi SE 11.5 mph - N/A   Overcast
11:10 PM 50.0 °F - 42.8 °F 76% 30.04 in 10.0 mi SSE 9.2 mph - N/A   Overcast
11:29 PM 50.0 °F - 42.8 °F 76% 30.03 in 10.0 mi SSE 9.2 mph - N/A   Overcast
11:50 PM 50.0 °F - 42.8 °F 76% 30.03 in 10.0 mi SSE 9.2 mph - N/A   Overcast